Location: Devore Heights
(34.2372°N, 117.4156°W)
Time: 10:40:14
(UTC+00:00)

Vanguard 1 - All Passes

Search period start: 07 September 2024 00:00
Search period end: 17 September 2024 00:00
Orbit: 649 x 3825 km, 34.2° (Epoch: 06 September)

Date Brightness Start Highest point End Pass type
(mag) Time Alt. Az. Time Alt. Az. Time Alt. Az.
07 Sep - 02:20:34 10° W 02:24:58 73° SSW 02:30:03 10° ESE daylight
07 Sep - 04:40:43 10° W 04:44:54 26° SSW 04:50:46 10° SSE visible
07 Sep - 19:36:26 10° SSW 19:43:43 19° SSE 19:48:52 10° ESE daylight
07 Sep - 21:57:05 10° SW 22:04:54 49° SSE 22:09:49 10° E daylight
08 Sep - 00:19:33 10° W 00:24:57 90° NW 00:29:22 10° E daylight
08 Sep - 02:40:25 10° W 02:44:43 58° SSW 02:49:52 10° ESE visible
08 Sep - 05:01:10 10° WSW 05:04:48 18° SSW 05:09:32 10° SSE visible
08 Sep - 19:54:51 10° SSW 20:03:47 26° SSE 20:09:34 10° E daylight
08 Sep - 22:16:56 10° WSW 22:24:44 62° SSE 22:29:38 10° E daylight
09 Sep - 00:39:33 10° W 00:44:47 89° N 00:49:11 10° E daylight
09 Sep - 03:00:19 10° W 03:04:29 42° SSW 03:09:33 10° SE visible
09 Sep - 05:22:34 10° SW 05:24:44 12° SSW 05:27:13 10° S visible
09 Sep - 17:56:25 10° S 18:01:23 12° SSE 18:05:30 10° SE daylight
09 Sep - 20:13:53 10° SW 20:23:49 35° SSE 20:29:49 10° E daylight
09 Sep - 22:36:58 10° WSW 22:44:34 75° SSE 22:49:24 10° E daylight
10 Sep - 00:59:32 10° W 01:04:35 85° S 01:09:01 10° E daylight
10 Sep - 03:20:19 10° W 03:24:13 30° SSW 03:28:58 10° SE visible
10 Sep - 18:12:47 10° S 18:21:38 19° SSE 18:27:58 10° ESE daylight
10 Sep - 20:33:20 10° SW 20:43:47 45° SSE 20:49:48 10° E daylight
10 Sep - 22:57:05 10° W 23:04:23 85° S 23:09:07 10° E daylight
11 Sep - 01:19:29 10° W 01:24:21 72° SSW 01:28:47 10° ESE daylight
11 Sep - 03:40:34 10° WSW 03:43:57 21° SSW 03:48:00 10° SSE visible
11 Sep - 18:30:43 10° SSW 18:41:48 25° SSE 18:48:59 10° ESE daylight
11 Sep - 20:53:06 10° SW 21:03:42 56° SSE 21:09:38 10° E daylight
11 Sep - 23:17:15 10° W 23:24:13 89° N 23:28:53 10° E daylight
12 Sep - 01:39:25 10° W 01:44:05 55° SSW 01:48:29 10° ESE daylight
12 Sep - 04:01:27 10° WSW 04:03:43 13° SSW 04:06:15 10° S visible
12 Sep - 16:34:18 10° SSE 16:38:27 11° SSE 16:42:09 10° SE daylight
12 Sep - 18:49:24 10° SSW 19:01:55 33° SSE 19:09:27 10° E daylight
12 Sep - 21:13:07 10° WSW 21:23:34 68° SSE 21:29:24 10° E daylight
12 Sep - 23:37:24 10° W 23:44:03 89° N 23:48:37 10° E daylight
13 Sep - 01:59:24 10° W 02:03:45 39° SSW 02:08:00 10° SE daylight
13 Sep - 16:49:00 10° S 16:58:47 17° SSE 17:06:10 10° ESE daylight
13 Sep - 19:08:35 10° SW 19:21:58 42° SSE 19:29:34 10° E daylight
13 Sep - 21:33:17 10° WSW 21:43:26 79° S 21:49:07 10° E daylight
13 Sep - 23:57:31 10° W 00:03:52 84° S 00:08:21 10° E daylight
14 Sep - 02:19:31 10° W 02:23:23 27° SSW 02:27:15 10° SSE visible
14 Sep - 17:06:13 10° SSW 17:19:02 24° SSE 17:27:46 10° ESE daylight
14 Sep - 19:28:10 10° SW 19:41:59 52° SSE 19:49:30 10° E daylight
14 Sep - 21:53:34 10° W 22:03:18 87° S 22:08:49 10° E daylight
15 Sep - 00:17:34 10° W 00:23:37 72° SSW 00:28:03 10° ESE daylight
15 Sep - 02:39:57 10° WSW 02:42:59 18° SSW 02:46:04 10° SSE visible
15 Sep - 17:24:25 10° SSW 17:39:13 31° SSE 17:48:33 10° E daylight
15 Sep - 19:48:03 10° WSW 20:01:56 63° SSE 20:09:18 10° E daylight
15 Sep - 22:13:53 10° W 22:23:10 89° N 22:28:32 10° E daylight
16 Sep - 00:37:37 10° W 00:43:18 56° SSW 00:47:38 10° ESE daylight
16 Sep - 03:01:39 10° SW 03:02:34 10° SSW 03:03:29 10° SSW visible
16 Sep - 15:25:58 10° S 15:35:12 15° SE 15:42:49 10° ESE daylight
16 Sep - 17:43:14 10° SSW 17:59:20 39° SSE 18:08:53 10° E daylight
16 Sep - 20:08:11 10° WSW 20:21:52 73° SSE 20:29:03 10° E daylight
16 Sep - 22:34:11 10° W 22:43:01 90° NNW 22:48:14 10° E daylight
